Lihue, HI

10:45 AM HST on November 20, 2019 (GMT -1000)
Lihue

Weather History for PHLI - October, 2019

Change the Weather History Date:

Saturday, October 19, 2019

  Actual Average Record
Temperature  
Mean Temperature 80 °F 78 °F  
Max Temperature 84 °F 83 °F 88 °F (1957)
Min Temperature 76 °F 73 °F 64 °F (1955)
Degree Days  
Heating Degree Days 0 0  
Month to date heating degree days 0 0  
Since 1 July heating degree days 0 0  
Cooling Degree Days 15 13  
Month to date cooling degree days 276 258  
Year to date cooling degree days 3680 3217  
Growing Degree Days 30 (Base 50)    
Moisture  
Dew Point 74 °F    
Average Humidity 82    
Maximum Humidity 90    
Minimum Humidity 68    
Precipitation  
Precipitation 0.03 in 0.13 in 1.24 in (1999)
Month to date precipitation 4.76 2.12  
Year to date precipitation 25.61 25.69  
Sea Level Pressure  
Sea Level Pressure 30.03 in    
Wind  
Wind Speed 14 mph (ENE)    
Max Wind Speed 21 mph    
Max Gust Speed 24 mph    
Visibility 10 miles    
Events Rain    
T = Trace of Precipitation, MM = Missing Value Source: NWS Daily Summary

Daily Weather History Graph

Daily Weather History Graph

Search for Another Location

Airport or City:

Astronomy

Oct. 19, 2019 Rise Set
Actual Time 6:35 AM HST 6:09 PM HST
Civil Twilight 6:12 AM HST 6:31 PM HST
Nautical Twilight 5:46 AM HST 6:57 PM HST
Astronomical Twilight 5:20 AM HST 7:23 PM HST
Moon 10:57 PM HST (10/19) 11:50 AM HST (10/19)
Length of Visible Light 12h 19m
Length of Day
11h 34m
Waning Gibbous, 67% of the Moon is Illuminated
Oct 19
Waning Gibbous
Oct 21
Last Quarter
Oct 27
New
Nov 4
First Quarter
Nov 12
Full

Hourly Weather History & Observations

Time (HST) Temp. Heat Index Dew Point Humidity Pressure Visibility Wind Dir Wind Speed Gust Speed Precip Events Conditions
12:53 AM 78.1 °F - 73.9 °F 87% 30.06 in 10.0 mi ENE 12.7 mph - 0.02 in   Scattered Clouds
1:11 AM 78.8 °F - 73.4 °F 83% 30.06 in 10.0 mi ENE 18.4 mph 24.2 mph N/A   Mostly Cloudy
1:28 AM 78.1 °F - 73.0 °F 84% 30.06 in 10.0 mi ENE 13.8 mph - N/A   Scattered Clouds
1:53 AM 77.0 °F - 73.0 °F 88% 30.05 in 5.0 mi ENE 17.3 mph 23.0 mph 0.00 in Rain Light Rain
2:53 AM 78.1 °F - 73.0 °F 84% 30.03 in 10.0 mi ENE 13.8 mph - 0.01 in   Scattered Clouds
3:34 AM 78.1 °F - 73.0 °F 84% 30.03 in 10.0 mi ENE 16.1 mph - N/A   Mostly Cloudy
3:48 AM 78.8 °F - 73.4 °F 83% 30.02 in 10.0 mi ENE 15.0 mph - 0.00 in   Mostly Cloudy
4:53 AM 78.1 °F - 73.0 °F 84% 30.01 in 10.0 mi ENE 16.1 mph - N/A   Scattered Clouds
5:53 AM 78.1 °F - 73.9 °F 87% 30.03 in 10.0 mi ENE 13.8 mph - N/A   Overcast
6:53 AM 78.1 °F - 73.9 °F 87% 30.04 in 10.0 mi ENE 15.0 mph - N/A   Scattered Clouds
7:53 AM 80.1 °F 84.5 °F 73.9 °F 81% 30.06 in 10.0 mi East 12.7 mph - N/A   Scattered Clouds
8:53 AM 81.0 °F 86.7 °F 75.0 °F 82% 30.07 in 10.0 mi East 12.7 mph - N/A   Mostly Cloudy
9:53 AM 82.0 °F 87.9 °F 73.9 °F 76% 30.07 in 10.0 mi ENE 16.1 mph - N/A   Mostly Cloudy
11:53 AM 84.0 °F 91.2 °F 73.9 °F 72% 30.04 in 10.0 mi East 15.0 mph - N/A   Clear
12:53 PM 84.0 °F 91.9 °F 75.0 °F 74% 30.02 in 10.0 mi ENE 8.1 mph - N/A   Clear
1:53 PM 82.0 °F 87.4 °F 73.0 °F 74% 30.00 in 10.0 mi ENE 12.7 mph - N/A   Scattered Clouds
2:53 PM 82.9 °F 88.8 °F 73.0 °F 72% 29.98 in 10.0 mi East 11.5 mph - N/A   Partly Cloudy
3:53 PM 82.9 °F 88.8 °F 73.0 °F 72% 29.98 in 10.0 mi East 8.1 mph - N/A   Partly Cloudy
4:53 PM 82.0 °F 87.4 °F 73.0 °F 74% 29.98 in 10.0 mi ENE 11.5 mph - N/A   Scattered Clouds
5:53 PM 80.1 °F 83.8 °F 72.0 °F 76% 29.99 in 10.0 mi ENE 10.4 mph - N/A   Clear
6:53 PM 79.0 °F - 73.9 °F 84% 30.01 in 6.0 mi East 9.2 mph - 0.00 in Rain Rain
7:53 PM 79.0 °F - 75.0 °F 88% 30.02 in 10.0 mi East 10.4 mph - 0.01 in   Mostly Cloudy
8:21 PM 80.1 °F 85.1 °F 75.0 °F 85% 30.03 in 10.0 mi East 11.5 mph - N/A   Scattered Clouds
8:28 PM 80.1 °F 85.1 °F 75.0 °F 85% 30.03 in 10.0 mi East 11.5 mph - N/A   Mostly Cloudy
8:53 PM 80.1 °F 85.1 °F 75.0 °F 85% 30.04 in 10.0 mi East 9.2 mph - N/A   Scattered Clouds
9:53 PM 80.1 °F 85.4 °F 75.9 °F 87% 30.03 in 9.0 mi East 11.5 mph - N/A   Partly Cloudy
10:53 PM 79.0 °F - 75.9 °F 90% 30.03 in 10.0 mi East 10.4 mph - N/A   Partly Cloudy
11:53 PM 79.0 °F - 75.9 °F 90% 30.01 in 10.0 mi East 9.2 mph - N/A   Clear